Venice, Italy

2:23 PM CEST on July 23, 2017 (GMT +0200)
Tessera

Weather History for LIPZ - March, 2014

Change the Weather History Date:

Saturday, March 22, 2014

  Actual Average Record
Temperature  
Mean Temperature 56 °F -  
Max Temperature 62 °F 59 °F 68 °F (2001)
Min Temperature 50 °F 44 °F 28 °F (2009)
Degree Days  
Heating Degree Days 9    
Growing Degree Days 6 (Base 50)    
Moisture  
Dew Point 51 °F    
Average Humidity 82    
Maximum Humidity 94    
Minimum Humidity 60    
Precipitation  
Precipitation 0.03 in 0.08 in - ()
Sea Level Pressure  
Sea Level Pressure 29.90 in    
Wind  
Wind Speed 6 mph ()    
Max Wind Speed 12 mph    
Max Gust Speed -    
Visibility 4.5 miles    
Events Rain    
Averages and records for this station are not official NWS values.
T = Trace of Precipitation, MM = Missing Value Source: Averaged Metar Reports

Daily Weather History Graph

Daily Weather History Graph

Search for Another Location

Airport or City:

Trip Planner

Search our weather history database for the weather conditions in past years. The results will help you decide how hot, cold, wet, or windy it might be!

Date:

Astronomy

Mar. 22, 2014 Rise Set
Actual Time 6:10 AM CET 6:25 PM CET
Civil Twilight 5:40 AM CET 6:55 PM CET
Nautical Twilight 5:06 AM CET 7:29 PM CET
Astronomical Twilight 4:30 AM CET 8:05 PM CET
Moon No Moon Rise 9:24 AM CET (3/22)
Length of Visible Light 13h 14m
Length of Day
12h 15m
Waning Gibbous, 68% of the Moon is Illuminated
Mar 22
Waning Gibbous
Mar 24
Last Quarter
Mar 30
New
Apr 7
First Quarter
Apr 15
Full

Hourly Weather History & Observations

Time (CET) Temp. Dew Point Humidity Pressure Visibility Wind Dir Wind Speed Gust Speed Precip Events Conditions
12:20 AM 55.4 °F 53.6 °F 94% 30.04 in 1.2 mi NNE 6.9 mph - N/A   Scattered Clouds
12:50 AM 55.4 °F 53.6 °F 94% 30.04 in 1.2 mi NNE 6.9 mph - N/A   Scattered Clouds
1:00 AM 55 °F 53 °F 89% 30.05 in 1 mi NNE 6.9 mph - -   Mist
1:20 AM 55.4 °F 53.6 °F 94% 30.04 in 1.2 mi NE 9.2 mph - N/A   Scattered Clouds
1:50 AM 55.4 °F 53.6 °F 94% 30.01 in 1.6 mi NE 6.9 mph - N/A   Scattered Clouds
2:20 AM 55.4 °F 51.8 °F 88% 30.01 in 2.5 mi NE 8.1 mph - N/A   Scattered Clouds
2:50 AM 55.4 °F 51.8 °F 88% 29.98 in 3.1 mi NE 6.9 mph - N/A   Scattered Clouds
3:20 AM 53.6 °F 50.0 °F 88% 29.98 in 2.5 mi North 6.9 mph - N/A   Scattered Clouds
3:50 AM 51.8 °F 50.0 °F 94% 29.98 in 1.9 mi North 5.8 mph - N/A   Scattered Clouds
4:00 AM 52 °F 48 °F 82% 29.99 in 2 mi North 5.8 mph - -   Mist
4:20 AM 51.8 °F 48.2 °F 88% 29.98 in 1.2 mi North 6.9 mph - N/A   Scattered Clouds
4:50 AM 50.0 °F 48.2 °F 94% 29.98 in 1.2 mi North 5.8 mph - N/A   Mist
5:20 AM 50.0 °F 48.2 °F 94% 29.95 in 2.5 mi North 8.1 mph - N/A   Mist
5:50 AM 50.0 °F 46.4 °F 87% 29.95 in 3.1 mi North 6.9 mph - N/A   Mostly Cloudy
6:20 AM 51.8 °F 48.2 °F 88% 29.95 in 3.1 mi North 6.9 mph - N/A   Mostly Cloudy
6:50 AM 51.8 °F 48.2 °F 88% 29.95 in 4.3 mi NNE 6.9 mph - N/A   Scattered Clouds
7:00 AM 52 °F 48 °F 82% 29.96 in 4 mi NNE 8.1 mph - -   Mist
7:20 AM 51.8 °F 48.2 °F 88% 29.95 in 4.3 mi Variable 3.5 mph - N/A   Scattered Clouds
7:50 AM 53.6 °F 48.2 °F 82% 29.95 in 4.3 mi North 6.9 mph - N/A   Scattered Clouds
8:20 AM 53.6 °F 48.2 °F 82% 29.95 in 4.3 mi North 4.6 mph - N/A   Scattered Clouds
8:50 AM 55.4 °F 48.2 °F 77% 29.95 in 6.2 mi NNE 5.8 mph - N/A   Scattered Clouds
9:20 AM 57.2 °F 50.0 °F 77% 29.95 in 6.2 mi Variable 3.5 mph - N/A   Scattered Clouds
9:50 AM 59.0 °F 51.8 °F 77% 29.95 in 6.2 mi Variable 2.3 mph - N/A   Scattered Clouds
10:00 AM 58 °F 52 °F 73% 29.97 in 6 mi North 2.3 mph - -   Partly Cloudy
10:20 AM 60.8 °F 51.8 °F 72% 29.95 in 6.2 mi Variable 3.5 mph - N/A   Scattered Clouds
10:50 AM 59.0 °F 50.0 °F 72% 29.95 in 6.2 mi Variable 3.5 mph - N/A   Scattered Clouds
11:20 AM 59.0 °F 50.0 °F 72% 29.95 in 6.2 mi South 4.6 mph - N/A   Scattered Clouds
11:50 AM 60.8 °F 53.6 °F 77% 29.95 in 6.2 mi Variable 2.3 mph - N/A   Scattered Clouds
12:20 PM 60.8 °F 51.8 °F 72% 29.92 in 6.2 mi South 4.6 mph - N/A   Scattered Clouds
12:50 PM 60.8 °F 50.0 °F 68% 29.92 in 6.2 mi SSE 4.6 mph - N/A   Mostly Cloudy
1:00 PM 61 °F 51 °F 60% 29.93 in 6 mi SSE 4.6 mph - -   Scattered Clouds
1:20 PM 60.8 °F 50.0 °F 68% 29.92 in 6.2 mi South 6.9 mph - N/A   Mostly Cloudy
1:50 PM 60.8 °F 51.8 °F 72% 29.89 in 6.2 mi South 6.9 mph - N/A   Mostly Cloudy
2:20 PM 60.8 °F 50.0 °F 68% 29.89 in 6.2 mi SSE 4.6 mph - N/A   Mostly Cloudy
2:50 PM 60.8 °F 51.8 °F 72% 29.86 in 5.6 mi SE 9.2 mph - N/A   Mostly Cloudy
3:20 PM 60.8 °F 51.8 °F 72% 29.86 in 5.0 mi SE 11.5 mph - N/A   Mostly Cloudy
3:50 PM 59.0 °F 51.8 °F 77% 29.86 in 5.0 mi SE 9.2 mph - N/A   Mostly Cloudy
4:00 PM 60 °F 53 °F 72% 29.86 in 5 mi SE 8.1 mph - -   Mist
4:20 PM 59.0 °F 50.0 °F 72% 29.83 in 5.0 mi SE 11.5 mph - N/A   Mostly Cloudy
4:50 PM 59.0 °F 51.8 °F 77% 29.83 in 5.0 mi SE 6.9 mph - N/A   Mostly Cloudy
5:20 PM 59.0 °F 53.6 °F 82% 29.80 in 5.0 mi SE 10.4 mph - N/A Rain Light Rain
5:50 PM 59.0 °F 53.6 °F 82% 29.80 in 5.0 mi ESE 9.2 mph - N/A Rain Light Rain
6:20 PM 59.0 °F 55.4 °F 88% 29.80 in 5.0 mi East 11.5 mph - N/A   Mostly Cloudy
6:50 PM 59.0 °F 55.4 °F 88% 29.77 in 5.6 mi SE 6.9 mph - N/A   Mostly Cloudy
7:00 PM 59 °F 54 °F 80% 29.80 in 5 mi East 10.4 mph - -   Mist
7:20 PM 59.0 °F 53.6 °F 82% 29.77 in 6.2 mi Variable 3.5 mph - N/A Rain Light Rain
7:50 PM 59.0 °F 51.8 °F 77% 29.77 in 6.2 mi SSW 5.8 mph - N/A Rain Rain
8:20 PM 59.0 °F 51.8 °F 77% 29.80 in 6.2 mi SW 6.9 mph - N/A Rain Rain
8:50 PM 59.0 °F 51.8 °F 77% 29.80 in 6.2 mi SW 6.9 mph - N/A Rain Rain
9:20 PM 57.2 °F 53.6 °F 88% 29.77 in 5.6 mi WNW 4.6 mph - N/A Rain Rain
9:50 PM 55.4 °F 51.8 °F 88% 29.77 in 5.0 mi NW 4.6 mph - N/A Rain Rain
10:00 PM 56 °F 52 °F 82% 29.79 in 5 mi NW 4.6 mph - - Rain Light Rain
10:20 PM 55.4 °F 51.8 °F 88% 29.77 in 5.0 mi North 4.6 mph - N/A Rain Rain
10:50 PM 55.4 °F 53.6 °F 94% 29.77 in 5.0 mi NNE 4.6 mph - N/A Rain Rain
11:20 PM 55.4 °F 53.6 °F 94% 29.77 in 4.3 mi NNE 4.6 mph - N/A Rain Light Rain
11:50 PM 55.4 °F 53.6 °F 94% 29.74 in 4.3 mi NNE 5.8 mph - N/A Rain Light Rain